Showing default

ZHUHAI-1 03D, 44538

Orbit data source: Space-Track

ZHUHAI-1 03D, 44538 is a payload satellite owned by Zhuhai Orbita (CN) in SSO that was launched on Thu, 19 Sep 2019 UTC via a CHANG ZHENG 11 launch vehicle from the Jiuquan Satellite Launch Center, China (JSC). Payload-class satellites include a variety of spacecraft equipped with specific instruments for various scientific and technological missions. These include communications satellites like Starlink; space stations such as the ISS; scientific satellites like the Hubble; Earth observation satellites from companies like Planet Labs, Umbra, and HawkEye 360; GPS; miniature CubeSats for education and research; and military/defense satellites.

Not visible in the next 10 days
Identifier
44538, 2019-060E
Orbit
SSO
Country
Flag of CNCN / PRC
Related business
Manufacturer
Harbin
Mission
Operational Commercial Imaging
Bus & Motor
OHS-1, Unknown motor
Mass
69 kg wet, 69 kg dry
Launch date (UTC)
2019-09-19 (6 years ago)
Launch vehicle
CHANG ZHENG 11
Launch site
Jiuquan Satellite Launch Center, China (JSC)
Object type
Payload
Rocket body
Debris
Shape & HBR
Box, Unknown HBR
Radar Cross Section
0.280 m², Medium (>0.1 m² and < 1m²)

Expand to show TLE details & history
Last TLE update: 11 hours ago

TLE from 11 hours ago
0 ZHUHAI-1 03D
1 44538U 19060E   25352.63573010  .00020570  00000-0  53972-3 0  9995
2 44538  97.5186 131.1483 0009454 238.4320 121.6002 15.38635923348212
Epoch: 2025-12-18T15:15Z
TLE epoch observation values (Epoch: 2025-12-18T15:15:27.080Z)
Latitude
-0.00007°
Longitude
174.79708°
Altitude
456.642 km
Speed
7.637 km/s
True Right ascension
08h 44m 35s
True Declination
0° 00' 00"
Sunlit
Object was in full shadow at epoch
Visualization orbit readout
Latitude
Unknown
Longitude
Unknown
Altitude
Unknown
Speed
Unknown
Apparent Right ascension
Unknown
Apparent Declination
Unknown
Sunlit
N/A
Visualization observer readout
Local Sidereal Time
01:13:39
Azimuth
Unknown
Elevation
Unknown
Doppler factor
Unknown
Orbital elements
Apogee altitude
453.541 km
Perigee altitude
440.635 km
Semi-major axis
6,825.225 km
Eccentricity
0.00095
Inclination
97.5186°
RAAN
131.1483°
Arg. of periapsis
238.432°
True anomaly
121.69241°
Mean anomaly
121.6002°
Eccentric anomaly
121.64631°
Mean motion
3.84918 °/min
Orbital period
93.53 mins
BSTAR
0.00053972
Loading maneuver chart data...
Computing Atmospheric mass density...
Loading historical data...
Loading historical data...
Loading historical data...
Loading historical data...
Loading historical data...
Loading historical data...
Loading historical data...

Documentation

Showing up to 5 results
|